カタログに戻る

SL-3 R/B

運用中PO
NORAD 10515·ROCKET BODY·🇷🇺 Russia

打ち上げ Dec 14, 1977 から Plesetsk Cosmodrome

Loading…

次のパス (今後24時間)

TLE

最新Source: Space-Track

元期: Sep 14, 2026, 09:32 UTC

1 10515U 77117B   26257.39783565  .00000014  00000-0  67419-6 0  9991
2 10515  81.2417 238.7141 0021104  74.4110 285.9387 14.09123501504926

AllMySatでSL-3 R/Bをリアルタイム追跡

Download on the App Store